Погода в Темирауле

Россия / Республика Дагестан     43°15′12″N   46°49′29″E
темп.,
°C
ветер,
м/с
пор.,
м/с
влажн.,
%
обл.,
%
осадки,
мм/ч
давл.,
гПа
погр.,
м
21 апреля, ср
ср2100:00+14зсз4975100 0.0 1010249
03:00+17з91579100 0.0 1011587
06:00+16зсз81284100 0.0 1013703
09:00+17зсз91267100 0.0 1016911
12:00+16зсз896868 0.0 1016881
15:00+16зсз7961100 0.4 1018989
18:00+12з6986100 2.2 1020352
21:00+12з5985100 2.2 1021396
22 апреля, чт
чт2200:00+11з3691100 0.0 1021144
03:00+11з3586100 0.0 1021117
06:00+12з3582100 0.0 1021198
09:00+13зсз4575100 0.0 1022457
12:00+14зсз5569100 0.0 1022827
15:00+14з3369100 0.0 1022573
18:00+13юз3476100 0.1 1022119
21:00+13зюз1182100 0.4 102214
23 апреля, пт
пт2300:00+12сз2285100 0.1 102049
03:00+11з3685100 0.1 1020258
06:00+10зсз5893100 0.8 1022541
09:00+10зсз5891100 1.1 1023506
12:00+13зсз81072100 0.1 10231088
15:00+16зсз710615 0.1 10221065
18:00+15сз35695 0.0 1022154
21:00+11юз22825 0.0 102213
24 апреля, сб
сб2400:00+10юв228292 0.0 102011
03:00+9юв22855 0.0 101917
06:00+11ссз1180100 0.0 101927
09:00+15в2264100 0.0 1019523
12:00+20в54471 0.0 10181366
15:00+20всв76455 0.0 1017951
18:00+15всв58625 0.0 1019251
21:00+11вюв127657 0.0 102021
25 апреля, вс
вс2500:00+11в118011 0.0 101910
03:00+10в1182100 0.0 101810
06:00+11всв1179100 0.0 101853
09:00+17св115993 0.0 1017556
12:00+20всв434797 0.0 10151245
15:00+20в6546100 0.0 1012963
18:00+15всв3460100 0.0 1012143
21:00+12з1166100 0.0 101414